Location: Unspecified
(0.0000°N, 0.0000°E)
Time: 06:10:55
(UTC+00:00)

Vanguard 3 - Pass Details

Date: 10 December 2017
Orbit: 508 x 3264 km, 33.3° (Epoch: 22 July)

Event Time Altitude Azimuth Distance (km) Brightness Sun altitude
Rises 02:35:05 0° 243° (WSW) 6,964 11.7 -44.4°
Reaches altitude 10° 02:42:40 10° 225° (SW) 6,164 11.5 -42.8°
Maximum altitude 02:54:11 18° 189° (S) 5,486 11.4 -40.3°
Drops below altitude 10° 03:04:57 10° 152° (SSE) 5,701 12.0 -38.0°
Sets 03:11:30 0° 134° (SE) 6,268 12.6 -36.6°
